Pipestone, MN

3:07 AM CST on January 23, 2018 (GMT -0600)
Pipestone Municipal

Weather History for KPQN - February, 2014

Change the Weather History Date:

Sunday, February 9, 2014

  Actual Average Record
Temperature  
Mean Temperature 10 °F -  
Max Temperature 32 °F 27 °F 46 °F (1999)
Min Temperature -11 °F 11 °F -14 °F (2011)
Degree Days  
Heating Degree Days 54    
Moisture  
Dew Point -10 °F    
Average Humidity 76    
Maximum Humidity 85    
Minimum Humidity 15    
Precipitation  
Precipitation 0.00 in - - ()
Sea Level Pressure  
Sea Level Pressure 30.28 in    
Wind  
Wind Speed 7 mph (NNW)    
Max Wind Speed 15 mph    
Max Gust Speed 22 mph    
Visibility 10 miles    
Events Snow    
Averages and records for this station are not official NWS values.
T = Trace of Precipitation, MM = Missing Value Source: NWS Daily Summary

Daily Weather History Graph

Daily Weather History Graph

Search for Another Location

Airport or City:

Trip Planner

Search our weather history database for the weather conditions in past years. The results will help you decide how hot, cold, wet, or windy it might be!

Date:

Astronomy

Feb. 09, 2014 Rise Set
Actual Time 7:32 AM CST 5:46 PM CST
Civil Twilight 7:02 AM CST 6:16 PM CST
Nautical Twilight 6:28 AM CST 6:50 PM CST
Astronomical Twilight 5:55 AM CST 7:24 PM CST
Moon 1:24 PM CST (2/9) 3:42 AM CST (2/9)
Length of Visible Light 11h 14m
Length of Day
10h 14m
Waxing Gibbous, 77% of the Moon is Illuminated
Feb 9
Waxing Gibbous
Feb 14
Full
Feb 22
Last Quarter
Mar 1
New
Mar 8
First Quarter

Hourly Weather History & Observations

Time (CST) Temp. Windchill Dew Point Humidity Pressure Visibility Wind Dir Wind Speed Gust Speed Precip Events Conditions
12:06 AM -0.4 °F -10.4 °F -5.8 °F 78% 30.19 in 10.0 mi North 4.6 mph - N/A   Clear
12:33 AM -2.2 °F -14.2 °F -7.6 °F 78% 30.19 in 10.0 mi North 5.8 mph - N/A   Clear
12:53 AM -2.2 °F -15.6 °F -7.6 °F 78% 30.19 in 10.0 mi North 6.9 mph - N/A   Clear
1:13 AM -4.0 °F -19.0 °F -7.6 °F 85% 30.20 in 10.0 mi North 8.1 mph - N/A   Clear
1:32 AM -4.0 °F -14.6 °F -9.4 °F 78% 30.20 in 10.0 mi North 4.6 mph - N/A   Clear
1:53 AM -5.8 °F -21.2 °F -9.4 °F 84% 30.21 in 10.0 mi North 8.1 mph - N/A   Clear
2:08 AM -5.8 °F -19.9 °F -9.4 °F 84% 30.20 in 10.0 mi North 6.9 mph - N/A   Clear
2:33 AM -5.8 °F -18.4 °F -9.4 °F 84% 30.21 in 5.0 mi North 5.8 mph - N/A Snow Light Snow
2:53 AM -5.8 °F -19.9 °F -11.2 °F 77% 30.21 in 7.0 mi North 6.9 mph - N/A   Unknown
3:13 AM -7.6 °F - -11.2 °F 84% 30.20 in 10.0 mi Calm Calm - N/A   Scattered Clouds
3:33 AM 32.0 °F 26.4 °F -11.2 °F 15% 30.21 in 10.0 mi NNW 5.8 mph - N/A   Unknown
3:53 AM -7.6 °F -18.8 °F -11.2 °F 84% 30.22 in 10.0 mi NNW 4.6 mph - N/A   Clear
4:13 AM -9.4 °F -18.6 °F -13.0 °F 84% 30.22 in 10.0 mi North 3.5 mph - N/A   Clear
4:21 AM -7.6 °F - -13.0 °F 77% 30.22 in 10.0 mi North - - N/A   Clear
4:53 AM -9.4 °F -22.7 °F -14.8 °F 77% 30.22 in 10.0 mi North 5.8 mph - N/A   Clear
5:13 AM -9.4 °F -20.9 °F -14.8 °F 77% 30.22 in 10.0 mi North 4.6 mph - N/A   Clear
5:33 AM -9.4 °F -24.3 °F -14.8 °F 77% 30.22 in 10.0 mi North 6.9 mph - N/A   Clear
5:53 AM -9.4 °F -25.6 °F -14.8 °F 77% 30.23 in 10.0 mi NNW 8.1 mph - N/A   Unknown
6:06 AM -9.4 °F -25.6 °F -14.8 °F 77% 30.23 in 10.0 mi North 8.1 mph - N/A   Clear
6:33 AM -9.4 °F -25.6 °F -14.8 °F 77% 30.23 in 10.0 mi North 8.1 mph - N/A   Unknown
6:53 AM -11.2 °F -27.8 °F -14.8 °F 84% 30.23 in 1.0 mi North 8.1 mph - N/A   Clear
7:12 AM -9.4 °F -22.7 °F -14.8 °F 77% 30.24 in 10.0 mi North 5.8 mph - N/A   Clear
7:33 AM -11.2 °F -20.6 °F -16.6 °F 77% 30.24 in 10.0 mi North 3.5 mph - N/A   Clear
7:53 AM -9.4 °F -20.9 °F -14.8 °F 77% 30.25 in 10.0 mi NNW 4.6 mph - N/A   Clear
8:13 AM -9.4 °F -24.3 °F -14.8 °F 77% 30.26 in 10.0 mi NNW 6.9 mph - N/A   Clear
8:33 AM -7.6 °F - -14.8 °F 71% 30.27 in 10.0 mi Calm Calm - N/A   Clear
8:53 AM -7.6 °F -23.4 °F -13.0 °F 77% 30.28 in 10.0 mi NNW 8.1 mph - N/A   Clear
9:13 AM -7.6 °F -20.6 °F -13.0 °F 77% 30.29 in 10.0 mi NW 5.8 mph - N/A   Clear
9:33 AM -5.8 °F -21.2 °F -11.2 °F 77% 30.29 in 10.0 mi NNW 8.1 mph - N/A   Clear
9:53 AM -5.8 °F -19.9 °F -11.2 °F 77% 30.28 in 10.0 mi NNW 6.9 mph - N/A   Clear
10:13 AM -5.8 °F -19.9 °F -11.2 °F 77% 30.29 in 10.0 mi NNW 6.9 mph - N/A   Clear
10:33 AM -4.0 °F -17.8 °F -11.2 °F 71% 30.30 in 10.0 mi NNW 6.9 mph - N/A   Clear
10:53 AM -2.2 °F -15.6 °F -9.4 °F 71% 30.30 in 10.0 mi NNW 6.9 mph - N/A   Clear
11:13 AM -2.2 °F -16.8 °F -9.4 °F 71% 30.30 in 10.0 mi NW 8.1 mph - N/A   Scattered Clouds
11:33 AM -0.4 °F -13.4 °F -7.6 °F 72% 30.31 in 10.0 mi NW 6.9 mph - N/A   Scattered Clouds
11:53 AM -0.4 °F -15.7 °F -5.8 °F 78% 30.30 in 10.0 mi NW 9.2 mph - N/A   Clear
12:13 PM -0.4 °F -14.7 °F -5.8 °F 78% 30.30 in 10.0 mi NW 8.1 mph - N/A   Clear
12:33 PM 1.4 °F -14.5 °F -5.8 °F 72% 30.30 in 10.0 mi NW 10.4 mph - N/A   Clear
12:53 PM 1.4 °F -16.1 °F -4.0 °F 78% 30.30 in 10.0 mi NNW 12.7 mph - N/A   Clear
1:13 PM 1.4 °F -15.3 °F -4.0 °F 78% 30.30 in 10.0 mi NW 11.5 mph - N/A   Clear
1:33 PM 3.2 °F -12.2 °F -2.2 °F 78% 30.29 in 10.0 mi NNW 10.4 mph 18.4 mph N/A   Clear
1:53 PM 3.2 °F -13.1 °F -2.2 °F 78% 30.28 in 10.0 mi NW 11.5 mph - N/A   Clear
2:13 PM 3.2 °F -13.1 °F -2.2 °F 78% 30.28 in 10.0 mi NNW 11.5 mph 17.3 mph N/A   Scattered Clouds
2:34 PM 3.2 °F -13.9 °F -2.2 °F 78% 30.28 in 10.0 mi NNW 12.7 mph 21.9 mph N/A   Scattered Clouds
2:53 PM 5.0 °F -12.3 °F -2.2 °F 72% 30.28 in 10.0 mi NW 13.8 mph 19.6 mph N/A   Scattered Clouds
3:13 PM 5.0 °F -10.8 °F -2.2 °F 72% 30.27 in 7.0 mi NNW 11.5 mph 20.7 mph N/A   Scattered Clouds
3:33 PM 3.2 °F -14.6 °F -2.2 °F 78% 30.27 in 10.0 mi NNW 13.8 mph - N/A   Clear
3:53 PM 3.2 °F -15.3 °F -5.8 °F 66% 30.28 in 10.0 mi NNW 15.0 mph 19.6 mph N/A   Clear
4:13 PM 3.2 °F -12.2 °F -5.8 °F 66% 30.28 in 10.0 mi NNW 10.4 mph 16.1 mph N/A   Clear
4:33 PM 3.2 °F -11.3 °F -5.8 °F 66% 30.29 in 10.0 mi North 9.2 mph - N/A   Clear
4:53 PM 3.2 °F -13.1 °F -5.8 °F 66% 30.29 in 10.0 mi NNW 11.5 mph 16.1 mph N/A   Clear
5:13 PM 1.4 °F -16.1 °F -5.8 °F 72% 30.30 in 10.0 mi NNW 12.7 mph 18.4 mph N/A   Clear
5:33 PM 1.4 °F -14.5 °F -5.8 °F 72% 30.30 in 10.0 mi NNW 10.4 mph 16.1 mph N/A   Clear
5:53 PM 1.4 °F -14.5 °F -7.6 °F 66% 30.30 in 10.0 mi NNW 10.4 mph - N/A   Clear
6:13 PM -0.4 °F -13.4 °F -7.6 °F 72% 30.32 in 10.0 mi North 6.9 mph - N/A   Clear
6:33 PM -0.4 °F -15.7 °F -7.6 °F 72% 30.32 in 10.0 mi NNW 9.2 mph - N/A   Clear
6:53 PM -2.2 °F -15.6 °F -7.6 °F 78% 30.32 in 10.0 mi North 6.9 mph - N/A   Clear
7:13 PM -2.2 °F -18.0 °F -7.6 °F 78% 30.32 in 10.0 mi NNW 9.2 mph - N/A   Clear
7:33 PM -2.2 °F -16.8 °F -7.6 °F 78% 30.32 in 10.0 mi NNW 8.1 mph - N/A   Clear
7:53 PM -2.2 °F -14.2 °F -9.4 °F 71% 30.32 in 10.0 mi NW 5.8 mph - N/A   Clear
8:13 PM -2.2 °F -15.6 °F -9.4 °F 71% 30.33 in 10.0 mi NW 6.9 mph - N/A   Clear
8:33 PM -2.2 °F -15.6 °F -7.6 °F 78% 30.34 in 10.0 mi NNW 6.9 mph - N/A   Clear
8:53 PM -5.8 °F -18.4 °F -9.4 °F 84% 30.35 in 10.0 mi WNW 5.8 mph - N/A   Clear
9:13 PM -11.2 °F -23.0 °F -14.8 °F 84% 30.36 in 10.0 mi West 4.6 mph - N/A   Clear
9:33 PM -9.4 °F -20.9 °F -13.0 °F 84% 30.36 in 10.0 mi West 4.6 mph - N/A   Clear
9:53 PM -9.4 °F -20.9 °F -14.8 °F 77% 30.37 in 10.0 mi WNW 4.6 mph - N/A   Clear
10:13 PM -11.2 °F -23.0 °F -16.6 °F 77% 30.37 in 10.0 mi West 4.6 mph - N/A   Clear
10:33 PM -9.4 °F -20.9 °F -14.8 °F 77% 30.38 in 10.0 mi WNW 4.6 mph - N/A   Clear
10:53 PM -9.4 °F -20.9 °F -14.8 °F 77% 30.38 in 10.0 mi WNW 4.6 mph - N/A   Clear
11:13 PM -7.6 °F -22.1 °F -11.2 °F 84% 30.37 in 10.0 mi NW 6.9 mph - N/A   Clear
11:33 PM -7.6 °F -22.1 °F -11.2 °F 84% 30.37 in 10.0 mi NW 6.9 mph - N/A   Clear
11:53 PM -5.8 °F -21.2 °F -11.2 °F 77% 30.37 in 10.0 mi NNW 8.1 mph - N/A   Clear